Location: Unspecified
(0.0000°N, 0.0000°E)
Time: 22:44:12
(UTC+00:00)

GONETS M 08 (M18) - Pass Details

Date: 23 May 2026
Orbit: 1470 x 1518 km, 82.5° (Epoch: 7 June)

Event Time Altitude Azimuth Distance (km) Brightness Sun altitude
Rises 04:01:53 0° 155° (SSE) 4,648 ? -26.7°
Reaches altitude 10° 04:05:39 10° 141° (SE) 3,670 ? -25.9°
Maximum altitude 04:12:06 23° 93° (E) 2,811 ? -24.4°
Drops below altitude 10° 04:18:31 10° 46° (NE) 3,673 ? -22.9°
Sets 04:22:14 0° 32° (NNE) 4,651 ? -22.0°
